BREEZE-M DEB, 41320

Orbit data source: Space-Track

BREEZE-M DEB, 41320 is space debris in HEO originally from a launch on Thu, 17 May 2012 UTC launched from the Tyuratam Missile And Space Complex (TTMTR). Debris objects in space refer to the collection of defunct objects orbiting the Earth. Examples of debris include non-operational satellites, rocket bodies, and fragments generated from explosions, collisions, or faulty payload assembly.

Loading next visibility...
Identifier
41320, 2012-026G
Orbit
HEO
Country
Flag of CISCIS
Related business
Manufacturer
Khrunichev
Mission
Spacecraft
Bus & Motor
Unknown
Mass
Unknown
Launch date (UTC)
2012-05-17 (13 years ago)
Launch vehicle
Unknown
Launch site
Tyuratam Missile And Space Complex (TTMTR)
Object type
Payload
Rocket body
Debris
Shape & HBR
Unknown shape, 1.1 m
Radar Cross Section
RCS unknown

Expand to show TLE details & history
Last TLE update: 1 day ago

TLE from 1 day ago
0 BREEZE-M DEB
1 41320U 12026G   25308.53218073 -.00000025  00000-0  00000-0 0  9996
2 41320   9.9595 158.7195 4104662   4.8306 358.3674  1.76039689 63474
Epoch: 2025-11-04T12:46Z
TLE epoch observation values (Epoch: 2025-11-04T12:46:20.415Z)
Latitude
0.00001°
Longitude
-76.7951°
Altitude
10,731.473 km
Speed
5.73 km/s
True Right ascension
10h 35m 13s
True Declination
0° 00' 00"
Sunlit
Object was in daylight at epoch
Visualization orbit readout
Latitude
Unknown
Longitude
Unknown
Altitude
Unknown
Speed
Unknown
Apparent Right ascension
Unknown
Apparent Declination
Unknown
Sunlit
N/A
Visualization observer readout
Local Sidereal Time
12:27:42
Azimuth
Unknown
Elevation
Unknown
Doppler factor
Unknown
Orbital elements
Apogee altitude
34,490.15 km
Perigee altitude
10,703.617 km
Semi-major axis
28,975.02 km
Eccentricity
0.41047
Inclination
9.9595°
RAAN
158.7195°
Arg. of periapsis
4.8306°
True anomaly
355.71883°
Mean anomaly
358.3674°
Eccentric anomaly
357.23144°
Mean motion
0.44006 °/min
Orbital period
818.08 mins
BSTAR
0
Loading maneuver chart data...
Computing Atmospheric mass density...
Loading historical data...
Loading historical data...
Loading historical data...
Loading historical data...
Loading historical data...
Loading historical data...
Loading historical data...

Documentation

Showing up to 5 results
|